Airfield :
LOGIN :

Register | Disclaimer

   EN    FR    IT 

 










Legend :    VFR   Marginal VFR   IFR   Intensive IFR   Very Intensive IFR
Visi :
Ceiling :
>= 8 km
>= 3000ft
5 to 8 km
1000 to 3000 ft
1500m to 5 km
500 to 1000 ft
800 to 1500m
200 to 500 ft
< 800m
< 200 ft
Symbols :   Thunderstorms  Fog  Heavy snow  Heavy precipitations  Wind > 20 kt
SIGMETs :     Misc.  Thunderstorms  Icing  Turbulence  Mountain Waves  Volcanic Ashes







- Airport Elevation : 640 ft
- IATA code : AOC


EDAC - Altenburg-Nobitz

CURRENT METAR :
  • 160750Z 21012KT 9999 -RA FEW025 OVC033 05/02 Q1012

EXPIRED METARs :
  • 160720Z AUTO 21011KT 9999 // BKN025/// OVC034/// 04/02 Q1012
  • 160650Z AUTO 21010KT 9999 // SCT030/// OVC036/// 05/02 Q1011
  • 160620Z AUTO 21011KT 9999 // SCT027/// BKN036/// OVC044/// 05/02 Q1012
  • 160550Z AUTO 22011KT 9999 // FEW026/// BKN033/// OVC043/// 05/02 Q1012
  • 160520Z AUTO 22010KT 9999 // FEW035/// OVC041/// 05/02 Q1012

Expired Forecast.
No reported NOTAMs for that airfield.



MET'MAP, your aeronautical weather chart ! - Copyright ORBIFLY December 2007 - Disclaimer

ORBIFLY MET'MAP TEAM :

Programming & Development : Alexandra Zaïnal
Concept & Development : Baudouin d'Aumeries
Co-Development & Prog : Marc-Olivier Méhu
Technical & hardware support : Manuel Goepfert

Contact : metmap@orbifly.com




SOURCES & CREDITS :

   NOAA